Year,Month,Day,Hour,Minute,Value (Times are PST for temperature in C)
2016,12,11,13,52,2.20
2016,12,11,13,53,2.10
2016,12,11,13,54,2.10
2016,12,11,13,55,2.10
2016,12,11,13,56,2.10
2016,12,11,13,57,2.10
2016,12,11,13,58,2.10
2016,12,11,13,59,2.10
2016,12,11,14,00,2.20
2016,12,11,14,01,2.20
2016,12,11,14,02,2.20
2016,12,11,14,03,2.20
2016,12,11,14,04,2.20
2016,12,11,14,05,2.20
2016,12,11,14,06,2.20
2016,12,11,14,07,2.20
2016,12,11,14,08,2.20
2016,12,11,14,09,2.20
2016,12,11,14,10,2.10
2016,12,11,14,11,2.10
2016,12,11,14,12,2.10
2016,12,11,14,13,2.10
2016,12,11,14,14,2.00
2016,12,11,14,15,2.00
2016,12,11,14,16,2.00
2016,12,11,14,17,2.00
2016,12,11,14,18,2.00
2016,12,11,14,19,2.00
2016,12,11,14,20,2.00
2016,12,11,14,21,2.00
2016,12,11,14,22,2.00
2016,12,11,14,23,2.00
2016,12,11,14,24,1.90
2016,12,11,14,25,1.90
2016,12,11,14,26,1.90
2016,12,11,14,27,1.90
2016,12,11,14,28,1.90
2016,12,11,14,29,1.90
2016,12,11,14,30,2.00
2016,12,11,14,31,2.00
2016,12,11,14,32,2.00
2016,12,11,14,33,2.00
2016,12,11,14,34,2.10
2016,12,11,14,35,2.10
2016,12,11,14,36,2.10
2016,12,11,14,37,2.10
2016,12,11,14,38,2.20
2016,12,11,14,39,2.20
2016,12,11,14,40,2.20
2016,12,11,14,41,2.20
2016,12,11,14,42,2.20
2016,12,11,14,43,2.20
2016,12,11,14,44,2.20
2016,12,11,14,45,2.20
2016,12,11,14,46,2.20
2016,12,11,14,47,2.20
2016,12,11,14,48,2.20
2016,12,11,14,49,2.20
2016,12,11,14,50,2.10
2016,12,11,14,51,2.10
2016,12,11,14,52,2.10
2016,12,11,14,53,2.10
2016,12,11,14,54,2.10
2016,12,11,14,55,2.10
2016,12,11,14,56,2.10
2016,12,11,14,57,2.10
2016,12,11,14,58,2.10
2016,12,11,14,59,2.10
2016,12,11,15,00,2.10
2016,12,11,15,01,2.10
2016,12,11,15,02,2.10
2016,12,11,15,03,2.10
2016,12,11,15,04,2.10
2016,12,11,15,05,2.10
2016,12,11,15,06,2.10
2016,12,11,15,07,2.10
2016,12,11,15,08,2.10
2016,12,11,15,09,2.00
2016,12,11,15,10,2.00
2016,12,11,15,11,2.00
2016,12,11,15,12,2.00
2016,12,11,15,13,2.00
2016,12,11,15,14,2.00
2016,12,11,15,15,2.00
2016,12,11,15,16,2.00
2016,12,11,15,17,2.10
2016,12,11,15,18,2.10
2016,12,11,15,19,2.10
2016,12,11,15,20,2.10
2016,12,11,15,21,2.20
2016,12,11,15,22,2.20
2016,12,11,15,23,2.20
2016,12,11,15,24,2.20
2016,12,11,15,25,2.20
2016,12,11,15,26,2.20
2016,12,11,15,27,2.20
2016,12,11,15,28,2.20
2016,12,11,15,29,2.20
2016,12,11,15,30,2.10
2016,12,11,15,31,2.10
2016,12,11,15,32,2.10
2016,12,11,15,33,2.10
2016,12,11,15,34,2.10
2016,12,11,15,35,2.10
2016,12,11,15,36,2.10
2016,12,11,15,37,2.10
2016,12,11,15,38,2.10
2016,12,11,15,39,2.10
2016,12,11,15,40,2.20
2016,12,11,15,41,2.10
2016,12,11,15,42,2.10
2016,12,11,15,43,2.10
2016,12,11,15,44,2.10
2016,12,11,15,45,2.10
2016,12,11,15,46,2.10
2016,12,11,15,47,2.10
2016,12,11,15,48,2.10
2016,12,11,15,49,2.10
2016,12,11,15,50,2.00
2016,12,11,15,51,2.00
2016,12,11,15,52,1.90
2016,12,11,15,53,1.90
2016,12,11,15,54,1.90
2016,12,11,15,55,1.80
2016,12,11,15,56,1.80
2016,12,11,15,57,1.80
2016,12,11,15,58,1.70
2016,12,11,15,59,1.70
2016,12,11,16,00,1.70
2016,12,11,16,01,1.60
2016,12,11,16,02,1.60
2016,12,11,16,03,1.60
2016,12,11,16,04,1.60
2016,12,11,16,05,1.60
2016,12,11,16,06,1.60
2016,12,11,16,07,1.60
2016,12,11,16,08,1.60
2016,12,11,16,09,1.60
2016,12,11,16,10,1.50
2016,12,11,16,11,1.50
2016,12,11,16,12,1.40
2016,12,11,16,13,1.40
2016,12,11,16,14,1.40
2016,12,11,16,15,1.40
2016,12,11,16,16,1.40
2016,12,11,16,17,1.40
2016,12,11,16,18,1.40
2016,12,11,16,19,1.40
2016,12,11,16,20,1.30
2016,12,11,16,21,1.30
2016,12,11,16,22,1.30
2016,12,11,16,23,1.30
2016,12,11,16,24,1.30
2016,12,11,16,25,1.30
2016,12,11,16,26,1.30
2016,12,11,16,27,1.30
2016,12,11,16,28,1.30
2016,12,11,16,29,1.30
2016,12,11,16,30,1.30
2016,12,11,16,31,1.20
2016,12,11,16,32,1.20
2016,12,11,16,33,1.20
2016,12,11,16,34,1.20
2016,12,11,16,35,1.20
2016,12,11,16,36,1.20
2016,12,11,16,37,1.20
2016,12,11,16,38,1.20
2016,12,11,16,39,1.20
2016,12,11,16,40,1.20
2016,12,11,16,41,1.20
2016,12,11,16,42,1.20
2016,12,11,16,43,1.10
2016,12,11,16,44,1.10
2016,12,11,16,45,1.20
2016,12,11,16,46,1.20
2016,12,11,16,47,1.20
2016,12,11,16,48,1.20
2016,12,11,16,49,1.20
2016,12,11,16,50,1.20
2016,12,11,16,51,1.20
2016,12,11,16,52,1.20
2016,12,11,16,53,1.20
2016,12,11,16,54,1.30
2016,12,11,16,55,1.30
2016,12,11,16,56,1.30
2016,12,11,16,57,1.40
2016,12,11,16,58,1.40
2016,12,11,16,59,1.40
2016,12,11,17,00,1.50
2016,12,11,17,01,1.50
2016,12,11,17,02,1.50
2016,12,11,17,03,1.50
2016,12,11,17,04,1.50
2016,12,11,17,05,1.50
2016,12,11,17,06,1.50
2016,12,11,17,07,1.50
2016,12,11,17,08,1.40
2016,12,11,17,09,1.40
2016,12,11,17,10,1.40
2016,12,11,17,11,1.40
2016,12,11,17,12,1.30
2016,12,11,17,13,1.30
2016,12,11,17,14,1.30
2016,12,11,17,15,1.30
2016,12,11,17,16,1.20
2016,12,11,17,17,1.20
2016,12,11,17,18,1.10
2016,12,11,17,19,1.10
2016,12,11,17,20,1.00
2016,12,11,17,21,1.00
2016,12,11,17,22,1.00
2016,12,11,17,23,1.00
2016,12,11,17,24,0.90
2016,12,11,17,25,0.90
2016,12,11,17,26,0.90
2016,12,11,17,27,0.90
2016,12,11,17,28,0.90
2016,12,11,17,29,1.00
2016,12,11,17,30,1.00
2016,12,11,17,31,1.00
2016,12,11,17,32,1.00
2016,12,11,17,33,1.00
2016,12,11,17,34,1.00
2016,12,11,17,35,1.00
2016,12,11,17,36,1.10
2016,12,11,17,37,1.10
2016,12,11,17,38,1.20
2016,12,11,17,39,1.20
2016,12,11,17,40,1.20
2016,12,11,17,41,1.20
2016,12,11,17,42,1.20
2016,12,11,17,43,1.20
2016,12,11,17,44,1.30
2016,12,11,17,45,1.30
2016,12,11,17,46,1.30
2016,12,11,17,47,1.30
2016,12,11,17,48,1.30
2016,12,11,17,49,1.30
2016,12,11,17,50,1.20
2016,12,11,17,51,1.20
2016,12,11,17,52,1.20
2016,12,11,17,53,1.20
2016,12,11,17,54,1.20
2016,12,11,17,55,1.20
2016,12,11,17,56,1.20
2016,12,11,17,57,1.20
2016,12,11,17,58,1.20
2016,12,11,17,59,1.20
2016,12,11,18,00,1.20
2016,12,11,18,01,1.20
2016,12,11,18,02,1.20
2016,12,11,18,03,1.20
2016,12,11,18,04,1.20
2016,12,11,18,05,1.20
2016,12,11,18,06,1.20
2016,12,11,18,07,1.30
2016,12,11,18,08,1.30
2016,12,11,18,09,1.30
2016,12,11,18,10,1.30
2016,12,11,18,11,1.30
2016,12,11,18,12,1.30
2016,12,11,18,13,1.30
2016,12,11,18,14,1.30
2016,12,11,18,15,1.30
2016,12,11,18,16,1.30
2016,12,11,18,17,1.30
2016,12,11,18,18,1.30
2016,12,11,18,19,1.30
2016,12,11,18,20,1.30
2016,12,11,18,21,1.30
2016,12,11,18,22,1.30
2016,12,11,18,23,1.30
2016,12,11,18,24,1.30
2016,12,11,18,25,1.30
2016,12,11,18,26,1.40
2016,12,11,18,27,1.40
2016,12,11,18,28,1.40
2016,12,11,18,29,1.40
2016,12,11,18,30,1.40
2016,12,11,18,31,1.40
2016,12,11,18,32,1.40
2016,12,11,18,33,1.40
2016,12,11,18,34,1.40
2016,12,11,18,35,1.50
2016,12,11,18,36,1.50
2016,12,11,18,37,1.50
2016,12,11,18,38,1.50
2016,12,11,18,39,1.50
2016,12,11,18,40,1.50
2016,12,11,18,41,1.40
2016,12,11,18,42,1.40
2016,12,11,18,43,1.40
2016,12,11,18,44,1.40
2016,12,11,18,45,1.40
2016,12,11,18,46,1.40
2016,12,11,18,47,1.40
2016,12,11,18,48,1.40
2016,12,11,18,49,1.40
2016,12,11,18,50,1.40
2016,12,11,18,51,1.40
2016,12,11,18,52,1.40
2016,12,11,18,53,1.40
2016,12,11,18,54,1.40
2016,12,11,18,55,1.40
2016,12,11,18,56,1.40
2016,12,11,18,57,1.40
2016,12,11,18,58,1.40
2016,12,11,18,59,1.40
2016,12,11,19,00,1.40
2016,12,11,19,01,1.40
2016,12,11,19,02,1.40
2016,12,11,19,03,1.40
2016,12,11,19,04,1.40
2016,12,11,19,05,1.40
2016,12,11,19,06,1.40
2016,12,11,19,07,1.40
2016,12,11,19,08,1.40
2016,12,11,19,09,1.40
2016,12,11,19,10,1.40
2016,12,11,19,11,1.40
2016,12,11,19,12,1.40
2016,12,11,19,13,1.40
2016,12,11,19,14,1.40
2016,12,11,19,15,1.40
2016,12,11,19,16,1.40
2016,12,11,19,17,1.40
2016,12,11,19,18,1.40
2016,12,11,19,19,1.40
2016,12,11,19,20,1.40
2016,12,11,19,21,1.40
2016,12,11,19,22,1.50
2016,12,11,19,23,1.50
2016,12,11,19,24,1.50
2016,12,11,19,25,1.60
2016,12,11,19,26,1.60
2016,12,11,19,27,1.60
2016,12,11,19,28,1.60
2016,12,11,19,29,1.60
2016,12,11,19,30,1.60
2016,12,11,19,31,1.60
2016,12,11,19,32,1.50
2016,12,11,19,33,1.50
2016,12,11,19,34,1.50
2016,12,11,19,35,1.40
2016,12,11,19,36,1.40
2016,12,11,19,37,1.40
2016,12,11,19,38,1.40
2016,12,11,19,39,1.40
2016,12,11,19,40,1.40
2016,12,11,19,41,1.40
2016,12,11,19,42,1.40
2016,12,11,19,43,1.40
2016,12,11,19,44,1.40
2016,12,11,19,45,1.40
2016,12,11,19,46,1.40
2016,12,11,19,47,1.40
2016,12,11,19,48,1.40
2016,12,11,19,49,1.40
2016,12,11,19,50,1.40
2016,12,11,19,51,1.50
2016,12,11,19,52,1.50
2016,12,11,19,53,1.60
2016,12,11,19,54,1.60
2016,12,11,19,55,1.60
2016,12,11,19,56,1.60
2016,12,11,19,57,1.50
2016,12,11,19,58,1.50
2016,12,11,19,59,1.50
2016,12,11,20,00,1.50
2016,12,11,20,01,1.60
2016,12,11,20,02,1.60
2016,12,11,20,03,1.60
2016,12,11,20,04,1.60
2016,12,11,20,05,1.60
2016,12,11,20,06,1.50
2016,12,11,20,07,1.50
2016,12,11,20,08,1.50
2016,12,11,20,09,1.50
2016,12,11,20,10,1.60
2016,12,11,20,11,1.60
2016,12,11,20,12,1.60
2016,12,11,20,13,1.60
2016,12,11,20,14,1.60
2016,12,11,20,15,1.60
2016,12,11,20,16,1.60
2016,12,11,20,17,1.50
2016,12,11,20,18,1.50
2016,12,11,20,19,1.50
2016,12,11,20,20,1.40
2016,12,11,20,21,1.40
2016,12,11,20,22,1.40
2016,12,11,20,23,1.40
2016,12,11,20,24,1.40
2016,12,11,20,25,1.40
2016,12,11,20,26,1.40
2016,12,11,20,27,1.40
2016,12,11,20,28,1.40
2016,12,11,20,29,1.40
2016,12,11,20,30,1.50
2016,12,11,20,31,1.60
2016,12,11,20,32,1.60
2016,12,11,20,33,1.60
2016,12,11,20,34,1.60
2016,12,11,20,35,1.60
2016,12,11,20,36,1.70
2016,12,11,20,37,1.70
2016,12,11,20,38,1.70
2016,12,11,20,39,1.70
2016,12,11,20,40,1.70
2016,12,11,20,41,1.70
2016,12,11,20,42,1.80
2016,12,11,20,43,1.80
2016,12,11,20,44,1.80
2016,12,11,20,45,1.80
2016,12,11,20,46,1.80
2016,12,11,20,47,1.80
2016,12,11,20,48,1.70
2016,12,11,20,49,1.60
2016,12,11,20,50,1.60
2016,12,11,20,51,1.60
2016,12,11,20,52,1.50
2016,12,11,20,53,1.50
2016,12,11,20,54,1.40
2016,12,11,20,55,1.50
2016,12,11,20,56,1.50
2016,12,11,20,57,1.60
2016,12,11,20,58,1.60
2016,12,11,20,59,1.60
2016,12,11,21,00,1.60
2016,12,11,21,01,1.60
2016,12,11,21,02,1.70
2016,12,11,21,03,1.70
2016,12,11,21,04,1.70
2016,12,11,21,05,1.80
2016,12,11,21,06,1.80
2016,12,11,21,07,1.90
2016,12,11,21,08,1.90
2016,12,11,21,09,1.90
2016,12,11,21,10,2.00
2016,12,11,21,11,2.00
2016,12,11,21,12,2.00
2016,12,11,21,13,2.00
2016,12,11,21,14,2.00
2016,12,11,21,15,2.00
2016,12,11,21,16,2.10
2016,12,11,21,17,2.10
2016,12,11,21,18,2.10
2016,12,11,21,19,2.10
2016,12,11,21,20,2.00
2016,12,11,21,21,2.00
2016,12,11,21,22,2.00
2016,12,11,21,23,2.00
2016,12,11,21,24,2.00
2016,12,11,21,25,1.90
2016,12,11,21,26,1.90
2016,12,11,21,27,1.90
2016,12,11,21,28,1.90
2016,12,11,21,29,1.90
2016,12,11,21,30,1.90
2016,12,11,21,31,1.90
2016,12,11,21,32,1.90
2016,12,11,21,33,1.90
2016,12,11,21,34,1.80
2016,12,11,21,35,1.80
2016,12,11,21,36,1.80
2016,12,11,21,37,1.80
2016,12,11,21,38,1.80
2016,12,11,21,39,1.80
2016,12,11,21,40,1.80
2016,12,11,21,41,1.80
2016,12,11,21,42,1.80
2016,12,11,21,43,1.80
2016,12,11,21,44,1.80
2016,12,11,21,45,1.80
2016,12,11,21,46,1.80
2016,12,11,21,47,1.80
2016,12,11,21,48,1.80
2016,12,11,21,49,1.80
2016,12,11,21,50,1.80
2016,12,11,21,51,1.80
2016,12,11,21,52,1.80
2016,12,11,21,53,1.80
2016,12,11,21,54,1.80
2016,12,11,21,55,1.80
2016,12,11,21,56,1.80
2016,12,11,21,57,1.80
2016,12,11,21,58,1.80
2016,12,11,21,59,1.80
2016,12,11,22,00,1.80
2016,12,11,22,01,1.80
2016,12,11,22,02,1.80
2016,12,11,22,03,1.80
2016,12,11,22,04,1.80
2016,12,11,22,05,1.80
2016,12,11,22,06,1.80
2016,12,11,22,07,1.80
2016,12,11,22,08,1.90
2016,12,11,22,09,1.90
2016,12,11,22,10,1.90
2016,12,11,22,11,1.90
2016,12,11,22,12,2.00
2016,12,11,22,13,2.00
2016,12,11,22,14,2.00
2016,12,11,22,15,2.00
2016,12,11,22,16,2.00
2016,12,11,22,17,2.00
2016,12,11,22,18,2.00
2016,12,11,22,19,2.00
2016,12,11,22,20,1.90
2016,12,11,22,21,1.90
2016,12,11,22,22,1.90
2016,12,11,22,23,1.90
2016,12,11,22,24,1.90
2016,12,11,22,25,1.90
2016,12,11,22,26,1.90
2016,12,11,22,27,1.90
2016,12,11,22,28,1.90
2016,12,11,22,29,1.80
2016,12,11,22,30,1.80
2016,12,11,22,31,1.90
2016,12,11,22,32,1.90
2016,12,11,22,33,1.90
2016,12,11,22,34,1.90
2016,12,11,22,35,1.90
2016,12,11,22,36,1.90
2016,12,11,22,37,1.90
2016,12,11,22,38,1.90
2016,12,11,22,39,1.90
2016,12,11,22,40,1.90
2016,12,11,22,41,1.90
2016,12,11,22,42,1.90
2016,12,11,22,43,1.90
2016,12,11,22,44,1.90
2016,12,11,22,45,1.90
2016,12,11,22,46,1.90
2016,12,11,22,47,1.90
2016,12,11,22,48,1.90
2016,12,11,22,49,1.90
2016,12,11,22,50,1.90
2016,12,11,22,51,1.90
2016,12,11,22,52,1.90
2016,12,11,22,53,1.90
2016,12,11,22,54,1.90
2016,12,11,22,55,1.90
2016,12,11,22,56,1.90
2016,12,11,22,57,1.90
2016,12,11,22,58,1.90
2016,12,11,22,59,1.90
2016,12,11,23,00,1.90
2016,12,11,23,01,1.90
2016,12,11,23,02,1.90
2016,12,11,23,03,1.90
2016,12,11,23,04,1.90
2016,12,11,23,05,1.90
2016,12,11,23,06,1.90
2016,12,11,23,07,1.90
2016,12,11,23,08,1.90
2016,12,11,23,09,1.90
2016,12,11,23,10,1.90
2016,12,11,23,11,2.00
2016,12,11,23,12,2.00
2016,12,11,23,13,2.00
2016,12,11,23,14,2.00
2016,12,11,23,15,2.00
2016,12,11,23,16,2.00
2016,12,11,23,17,2.00
2016,12,11,23,18,2.00
2016,12,11,23,19,2.00
2016,12,11,23,20,2.00
2016,12,11,23,21,2.00
2016,12,11,23,22,2.00
2016,12,11,23,23,2.00
2016,12,11,23,24,2.00
2016,12,11,23,25,2.00
2016,12,11,23,26,2.00
2016,12,11,23,27,2.00
2016,12,11,23,28,2.00
2016,12,11,23,29,2.00
2016,12,11,23,30,2.00
2016,12,11,23,31,2.00
2016,12,11,23,32,2.00
2016,12,11,23,33,2.00
2016,12,11,23,34,2.00
2016,12,11,23,35,2.00
2016,12,11,23,36,2.00
2016,12,11,23,37,2.00
2016,12,11,23,38,2.00
2016,12,11,23,39,2.00
2016,12,11,23,40,2.00
2016,12,11,23,41,2.00
2016,12,11,23,42,2.00
2016,12,11,23,43,2.00
2016,12,11,23,44,1.90
2016,12,11,23,45,1.90
2016,12,11,23,46,1.90
2016,12,11,23,47,1.90
2016,12,11,23,48,1.90
2016,12,11,23,49,1.90
2016,12,11,23,50,1.90
2016,12,11,23,51,1.90
2016,12,11,23,52,1.90
2016,12,11,23,53,1.90
2016,12,11,23,54,1.90
2016,12,11,23,55,1.90
2016,12,11,23,56,1.90
2016,12,11,23,57,1.90
2016,12,11,23,58,1.90
2016,12,11,23,59,1.90
